Home > Weather > Wunstorf > Past weeks

Flag for Germany Past Weather in Wunstorf, Lower Saxony, Germany — Yesterday and Last 2 Weeks

Now
68 °F

Thunderstorms. Broken clouds.


Feels Like: 68 °F
Forecast: 62 / 74 °F
Wind: 6 mph from Southeast

Location: Wunstorf Airport

Current Time: Jul 28, 2016 at 4:44:01 PM

Latest Report: Jul 28, 2016 at 3:54 PM


Visibility: 4 mi

Pressure: 29.95 "Hg

Humidity: 83%

Dew Point: 63 °F

Location of WunstorfLocation

Past Weather in Wunstorf — Graph

°F

Wunstorf Temperature Yesterday

Maximum temperature yesterday: 77 °F (at 2:20 PM)
Minimum temperature yesterday: 59 °F (at 6:20 AM)
Average temperature yesterday: 69 °F

High & Low Weather Summary for the Past Weeks

 TemperatureHumidityPressure
High88 °F (Jul 20, 3:20 PM)94% (Jul 13, 10:20 PM)30.24 "Hg (Jul 13, 10:20 PM)
Low52 °F (Jul 16, 3:20 AM)27% (Jul 24, 3:20 PM)29.86 "Hg (Jul 21, 4:20 AM)
Average69 °F68%30.07 "Hg
* Reported Jul 13 3:20 PM — Jul 28 3:20 PM, Wunstorf, Weather by CustomWeather, © 2016

Note: Actual official high and low records may vary slightly from our data, if they occured in-between our weather recording intervals... More about our weather records

Advertising

Wunstorf Weather History for the Previous 24 Hours

Scroll right to see more
 ConditionsComfort  
Time TempWeatherWind HumidityBarometerVisibility
3:20 PM
Thu, Jul 28
70 °FBroken clouds.8 mph78%29.95 "HgN/A
2:20 PM64 °FSprinkles. Broken clouds.6 mph88%29.98 "Hg3 mi
1:53 PM64 °FSprinkles. Partly sunny.3 mph88%29.98 "Hg3 mi
1:20 PM66 °FSprinkles. Partly sunny.1 mph83%29.98 "Hg2 mi
12:20 PM66 °FPartly sunny.5 mph78%30.01 "HgN/A
11:20 AM68 °FBroken clouds.3 mph69%30.01 "HgN/A
10:20 AM68 °FBroken clouds.5 mph69%30.01 "HgN/A
9:20 AM66 °FBroken clouds.5 mph73%30.01 "HgN/A
8:20 AM66 °FBroken clouds.8 mph78%29.98 "HgN/A
7:20 AM66 °FBroken clouds.6 mph78%29.98 "HgN/A
6:20 AM66 °FPartly cloudy.8 mph78%29.98 "HgN/A
5:20 AM66 °FPassing clouds.7 mph78%29.98 "HgN/A
4:20 AM66 °FMild.7 mph78%29.98 "Hg6 mi
3:20 AM66 °FMild.8 mph78%29.98 "Hg6 mi
2:20 AM66 °FMild.7 mph73%29.98 "HgN/A
1:20 AM68 °FMild.13 mph69%29.98 "HgN/A
12:20 AM68 °FMild.6 mph69%29.98 "Hg6 mi
11:20 PM
Wed, Jul 27
68 °FMild.5 mph69%29.98 "HgN/A
10:20 PM70 °FMild.9 mph64%29.98 "Hg6 mi
9:20 PM72 °FMild.6 mph53%29.98 "HgN/A
8:20 PM73 °FMild.8 mph50%29.98 "HgN/A
7:20 PM75 °FPassing clouds.12 mph47%29.95 "HgN/A
6:20 PM75 °FScattered clouds.15 mph50%29.95 "HgN/A
5:20 PM77 °FScattered clouds.15 mph47%29.95 "HgN/A
4:20 PM75 °FScattered clouds.14 mph54%29.95 "HgN/A
Weather by CustomWeather, © 2016

See weather overviewHow to use our weather pages